Home > Weather > Plauen > Past weeks

Flag for Germany Past Weather in Plauen, Saxony, Germany — Yesterday and Last 2 Weeks

Now
66 °F

Partly sunny.


Feels Like: 66 °F
Forecast: 58 / 74 °F
Wind: 6 mph from West

Location: Hof Airport

Current Time: Jun 28, 2016 at 3:25:29 PM

Latest Report: Jun 28, 2016 at 2:50 PM


Visibility: N/A

Pressure: 30.07 "Hg

Humidity: 60%

Dew Point: 52 °F

Location of PlauenLocation

Past Weather in Plauen — Graph

°F

Plauen Temperature Yesterday

Maximum temperature yesterday: 66 °F (at 11:50 AM)
Minimum temperature yesterday: 54 °F (at 7:20 AM)
Average temperature yesterday: 63 °F

High & Low Weather Summary for the Past Weeks

 TemperatureHumidityPressure
High90 °F (Jun 24, 5:20 PM)94% (Jun 14, 7:50 AM)30.30 "Hg (Jun 14, 7:50 AM)
Low50 °F (Jun 16, 6:50 AM)27% (Jun 24, 5:20 PM)29.53 "Hg (Jun 14, 6:20 PM)
Average65 °F66%29.97 "Hg
* Reported Jun 13 1:20 PM — Jun 28 1:50 PM, Plauen, Weather by CustomWeather, © 2016

Note: Actual official high and low records may vary slightly from our data, if they occured in-between our weather recording intervals... More about our weather records

Advertising

Plauen Weather History for the Previous 24 Hours

Scroll right to see more
 ConditionsComfort  
Time TempWeatherWind HumidityBarometerVisibility
1:50 PM
Tue, Jun 28
66 °FPartly sunny.9 mph60%30.09 "HgN/A
1:20 PM68 °FBroken clouds.8 mph60%30.09 "HgN/A
12:50 PM66 °FPartly sunny.7 mph64%30.09 "HgN/A
12:20 PM66 °FBroken clouds.7 mph60%30.09 "HgN/A
11:50 AM68 °FPartly sunny.6 mph60%30.09 "HgN/A
11:20 AM64 °FPartly sunny.6 mph68%30.09 "HgN/A
10:50 AM66 °FBroken clouds.9 mph68%30.09 "HgN/A
10:20 AM63 °FPartly sunny.12 mph68%30.09 "HgN/A
9:50 AM61 °FBroken clouds.8 mph77%30.09 "HgN/A
9:20 AM59 °FMostly cloudy.9 mph82%30.09 "HgN/A
8:50 AM59 °FMostly cloudy.8 mph82%30.09 "HgN/A
8:20 AM59 °FDrizzle. Low clouds.8 mph82%30.09 "HgN/A
7:50 AM59 °FCloudy.8 mph82%30.09 "HgN/A
7:20 AM57 °FPartly sunny.3 mph88%30.09 "HgN/A
6:50 AM57 °FMostly cloudy.3 mph88%30.09 "HgN/A
6:20 AM55 °FMore clouds than sun.3 mph88%30.09 "HgN/A
7:50 PM
Mon, Jun 27
61 °FSunny.14 mph55%30.12 "Hg10 mi
7:20 PM61 °FSunny.13 mph55%30.12 "Hg10 mi
6:50 PM61 °FPassing clouds.14 mph55%30.12 "HgN/A
6:20 PM64 °FSunny.13 mph49%30.12 "Hg10 mi
5:50 PM66 °FPassing clouds.14 mph46%30.12 "HgN/A
5:20 PM64 °FPassing clouds.13 mph43%30.12 "HgN/A
4:50 PM66 °FPassing clouds.14 mph43%30.09 "HgN/A
4:20 PM66 °FPassing clouds.14 mph46%30.09 "HgN/A
3:50 PM64 °FPassing clouds.15 mph43%30.12 "HgN/A
3:20 PM66 °FPassing clouds.13 mph40%30.12 "HgN/A
Weather by CustomWeather, © 2016

See weather overviewHow to use our weather pages